THY189 LGAV-LTFM

Flight info

Callsign THY189
Flight time N/A
Altitude 33000
Route KRO UN604 INBET
Aircraft B739/M-SDE2E3FGHIRWXY/LB1

Departure

Time 2026-05-07 16:27
Airport Athens Eleftherios Venizelos International Airport (LGAV)

Arrival

Time N/A
Airport İstanbul Airport (LTFM)
Time Latitude Longitude Altitude Speed Heading
2026-05-07 16:04 37.93559 23.94799 298 ft 0 kts 306°
2026-05-07 16:16 37.93546 23.94820 302 ft 4 kts 312°
2026-05-07 16:16 37.93527 23.94843 302 ft 4 kts 327°
2026-05-07 16:17 37.93503 23.94856 303 ft 4 kts 359°
2026-05-07 16:17 37.93488 23.94853 302 ft 0 kts 37°
2026-05-07 16:19 37.93497 23.94862 300 ft 4 kts 37°
2026-05-07 16:19 37.93534 23.94896 300 ft 9 kts 37°
2026-05-07 16:20 37.93601 23.94961 302 ft 15 kts 37°
2026-05-07 16:20 37.93695 23.95051 301 ft 18 kts 37°
2026-05-07 16:20 37.93795 23.95146 301 ft 18 kts 37°
2026-05-07 16:20 37.93869 23.95263 299 ft 17 kts 68°
2026-05-07 16:21 37.93922 23.95392 302 ft 16 kts 43°
2026-05-07 16:21 37.94010 23.95480 300 ft 16 kts 37°
2026-05-07 16:21 37.94096 23.95561 300 ft 15 kts 37°
2026-05-07 16:21 37.94178 23.95640 300 ft 14 kts 37°
2026-05-07 16:22 37.94257 23.95716 300 ft 14 kts 37°
2026-05-07 16:22 37.94332 23.95788 299 ft 13 kts 37°
2026-05-07 16:22 37.94355 23.95889 298 ft 13 kts 102°
2026-05-07 16:22 37.94390 23.95983 300 ft 12 kts 38°
2026-05-07 16:23 37.94460 23.96050 298 ft 14 kts 37°
2026-05-07 16:23 37.94546 23.96132 298 ft 16 kts 37°
2026-05-07 16:23 37.94638 23.96219 298 ft 19 kts 37°
2026-05-07 16:23 37.94762 23.96337 301 ft 25 kts 37°
2026-05-07 16:24 37.94908 23.96475 300 ft 26 kts 37°
2026-05-07 16:24 37.95048 23.96608 302 ft 24 kts 37°
2026-05-07 16:24 37.95179 23.96732 303 ft 23 kts 37°
2026-05-07 16:24 37.95281 23.96831 302 ft 12 kts 45°
2026-05-07 16:25 37.95281 23.96923 304 ft 12 kts 125°
2026-05-07 16:25 37.95241 23.96991 308 ft 9 kts 126°
2026-05-07 16:25 37.95186 23.97011 308 ft 9 kts 195°
2026-05-07 16:25 37.95165 23.96996 309 ft 0 kts 217°
2026-05-07 16:26 37.95152 23.96983 309 ft 15 kts 217°
2026-05-07 16:26 37.94878 23.96724 304 ft 84 kts 217°
2026-05-07 16:26 37.94243 23.96121 285 ft 141 kts 217°
2026-05-07 16:26 37.93654 23.95559 307 ft 169 kts 217°
2026-05-07 16:27 37.92332 23.94316 905 ft 185 kts 215°
2026-05-07 16:27 37.91192 23.93529 1454 ft 189 kts 195°
2026-05-07 16:27 37.89968 23.92950 2071 ft 193 kts 208°
2026-05-07 16:27 37.88728 23.92056 2242 ft 216 kts 208°
2026-05-07 16:28 37.87362 23.91106 2525 ft 230 kts 209°
2026-05-07 16:28 37.85937 23.90126 3023 ft 238 kts 208°
2026-05-07 16:28 37.84465 23.89122 3710 ft 243 kts 208°
2026-05-07 16:28 37.82982 23.88116 4497 ft 242 kts 209°
2026-05-07 16:29 37.81485 23.87111 5178 ft 247 kts 206°
2026-05-07 16:29 37.79745 23.86712 5493 ft 267 kts 171°
2026-05-07 16:29 37.78571 23.87243 5849 ft 275 kts 149°
2026-05-07 16:29 37.77179 23.88909 6483 ft 281 kts 124°
2026-05-07 16:30 37.76442 23.91205 7080 ft 287 kts 98°
2026-05-07 16:30 37.76593 23.93701 7735 ft 288 kts 70°
2026-05-07 16:30 37.77523 23.95944 8401 ft 290 kts 56°
2026-05-07 16:30 37.78675 23.98069 9027 ft 295 kts 53°
2026-05-07 16:31 37.79874 24.00178 9728 ft 297 kts 53°
2026-05-07 16:31 37.81086 24.02302 10351 ft 301 kts 52°
2026-05-07 16:31 37.82348 24.04528 10545 ft 321 kts 53°
2026-05-07 16:31 37.83685 24.06907 10699 ft 341 kts 53°
2026-05-07 16:32 37.85090 24.09429 10850 ft 359 kts 53°
2026-05-07 16:32 37.86557 24.12082 11017 ft 376 kts 53°
2026-05-07 16:32 37.88066 24.14827 11389 ft 384 kts 53°
2026-05-07 16:32 37.89594 24.17619 11919 ft 387 kts 53°
2026-05-07 16:33 37.91129 24.20431 12467 ft 390 kts 53°
2026-05-07 16:33 37.92681 24.23277 12989 ft 395 kts 53°
2026-05-07 16:33 37.94252 24.26162 13530 ft 399 kts 53°
2026-05-07 16:33 37.95815 24.29035 14051 ft 403 kts 53°
2026-05-07 16:34 37.97412 24.31970 14540 ft 407 kts 53°
2026-05-07 16:34 37.99022 24.34935 15073 ft 410 kts 53°
2026-05-07 16:34 38.00647 24.37927 15624 ft 413 kts 52°
2026-05-07 16:34 38.02280 24.40940 16142 ft 416 kts 53°
2026-05-07 16:35 38.03929 24.43982 16656 ft 420 kts 53°
2026-05-07 16:35 38.05591 24.47052 17145 ft 425 kts 53°
2026-05-07 16:35 38.07270 24.50157 17597 ft 429 kts 53°
2026-05-07 16:35 38.08965 24.53292 18075 ft 432 kts 53°
2026-05-07 16:36 38.10670 24.56451 18512 ft 436 kts 53°
2026-05-07 16:36 38.12398 24.59656 18857 ft 441 kts 53°
2026-05-07 16:36 38.14134 24.62878 19349 ft 442 kts 53°
2026-05-07 16:36 38.15870 24.66105 19842 ft 443 kts 53°
2026-05-07 16:37 38.17613 24.69348 20320 ft 445 kts 53°
2026-05-07 16:37 38.19367 24.72613 20774 ft 448 kts 53°
2026-05-07 16:37 38.21126 24.75891 21217 ft 450 kts 53°
2026-05-07 16:37 38.22895 24.79191 21651 ft 453 kts 53°
2026-05-07 16:38 38.24674 24.82514 22070 ft 455 kts 53°
2026-05-07 16:38 38.26460 24.85852 22488 ft 457 kts 53°
2026-05-07 16:38 38.28258 24.89216 22898 ft 460 kts 53°
2026-05-07 16:38 38.30058 24.92588 23303 ft 462 kts 53°
2026-05-07 16:39 38.31870 24.95985 23701 ft 464 kts 53°
2026-05-07 16:39 38.33687 24.99397 24036 ft 467 kts 52°
2026-05-07 16:39 38.35515 25.02832 24363 ft 469 kts 52°
2026-05-07 16:39 38.37326 25.06238 24692 ft 471 kts 52°
2026-05-07 16:40 38.39192 25.09751 25034 ft 473 kts 52°
2026-05-07 16:40 38.41028 25.13177 25365 ft 474 kts 51°
2026-05-07 16:40 38.43028 25.16521 25685 ft 475 kts 47°
2026-05-07 16:40 38.45134 25.19779 26005 ft 476 kts 46°
2026-05-07 16:41 38.47285 25.23013 26317 ft 478 kts 46°
2026-05-07 16:41 38.49444 25.26249 26621 ft 480 kts 46°
2026-05-07 16:41 38.51604 25.29516 26933 ft 482 kts 46°
2026-05-07 16:41 38.53753 25.32802 27243 ft 484 kts 47°
2026-05-07 16:42 38.55900 25.36117 27574 ft 485 kts 48°
2026-05-07 16:42 38.58044 25.39447 27899 ft 486 kts 48°
2026-05-07 16:42 38.60196 25.42801 28221 ft 487 kts 48°
2026-05-07 16:42 38.62343 25.46153 28633 ft 486 kts 48°
2026-05-07 16:43 38.64476 25.49487 29115 ft 484 kts 48°
2026-05-07 16:43 38.66601 25.52808 29630 ft 481 kts 49°
2026-05-07 16:43 38.68717 25.56117 30089 ft 480 kts 49°
2026-05-07 16:43 38.70831 25.59427 30456 ft 479 kts 49°
2026-05-07 16:44 38.72949 25.62744 30777 ft 479 kts 49°
2026-05-07 16:44 38.75060 25.66053 31094 ft 479 kts 49°
2026-05-07 16:44 38.77159 25.69349 31484 ft 477 kts 49°
2026-05-07 16:44 38.79253 25.72639 31860 ft 475 kts 49°
2026-05-07 16:45 38.81340 25.75921 32177 ft 475 kts 49°
2026-05-07 16:45 38.83425 25.79205 32464 ft 475 kts 49°
2026-05-07 16:45 38.85513 25.82495 32730 ft 476 kts 49°
2026-05-07 16:45 38.87601 25.85789 33046 ft 475 kts 49°
2026-05-07 16:46 38.89693 25.89094 33115 ft 478 kts 49°
2026-05-07 16:46 38.93862 25.95692 33122 ft 475 kts 49°
2026-05-07 16:47 38.97995 26.02243 33123 ft 468 kts 49°
2026-05-07 16:47 39.02074 26.08734 33119 ft 464 kts 49°
2026-05-07 16:48 39.06150 26.15251 33139 ft 471 kts 49°
2026-05-07 16:48 39.10261 26.21839 33134 ft 474 kts 49°
2026-05-07 16:49 39.14389 26.28468 33118 ft 475 kts 49°
2026-05-07 16:49 39.18514 26.35102 33128 ft 475 kts 49°
2026-05-07 16:50 39.22798 26.41564 33109 ft 471 kts 40°
2026-05-07 16:50 39.28128 26.46341 33144 ft 464 kts 25°
2026-05-07 16:51 39.33791 26.50353 33136 ft 465 kts 28°
2026-05-07 16:51 39.39167 26.55021 33140 ft 466 kts 32°
2026-05-07 16:52 39.44435 26.59892 33136 ft 465 kts 32°
2026-05-07 16:52 39.49713 26.64711 33117 ft 464 kts 31°
2026-05-07 16:53 39.54998 26.69480 33130 ft 462 kts 31°
2026-05-07 16:53 39.60270 26.74232 33123 ft 461 kts 31°
2026-05-07 16:54 39.65496 26.78954 33141 ft 460 kts 31°
2026-05-07 16:54 39.70749 26.83713 33127 ft 460 kts 31°
2026-05-07 16:55 39.76001 26.88480 33138 ft 460 kts 31°
2026-05-07 16:55 39.81248 26.93250 33131 ft 460 kts 32°
2026-05-07 16:56 39.86481 26.98020 33090 ft 460 kts 32°
2026-05-07 16:56 39.89134 27.00439 32296 ft 470 kts 32°
2026-05-07 16:56 39.94474 27.05320 30665 ft 469 kts 32°
2026-05-07 16:57 39.97146 27.07767 29733 ft 470 kts 32°
2026-05-07 16:57 39.99832 27.10229 28682 ft 472 kts 32°
2026-05-07 16:57 40.02507 27.12684 27956 ft 467 kts 32°
2026-05-07 16:57 40.05150 27.15113 27241 ft 463 kts 32°
2026-05-07 16:58 40.07769 27.17522 26562 ft 458 kts 32°
2026-05-07 16:58 40.10364 27.19909 25896 ft 454 kts 32°
2026-05-07 16:58 40.12921 27.22263 25529 ft 443 kts 32°
2026-05-07 16:58 40.15399 27.24549 25340 ft 428 kts 32°
2026-05-07 16:59 40.17846 27.26623 25134 ft 412 kts 21°
2026-05-07 16:59 40.20517 27.27711 24808 ft 396 kts
2026-05-07 16:59 40.23233 27.27966 24462 ft 388 kts 360°
2026-05-07 16:59 40.25925 27.28109 24080 ft 386 kts 359°
2026-05-07 17:00 40.28608 27.28272 23732 ft 389 kts
2026-05-07 17:00 40.31197 27.29344 23453 ft 398 kts 28°
2026-05-07 17:00 40.33397 27.31595 23225 ft 405 kts 44°
2026-05-07 17:00 40.35074 27.34581 22968 ft 407 kts 56°
2026-05-07 17:01 40.36553 27.37745 22701 ft 406 kts 57°
2026-05-07 17:01 40.37995 27.40917 22436 ft 404 kts 57°
2026-05-07 17:01 40.39429 27.44084 22173 ft 403 kts 57°
2026-05-07 17:01 40.40866 27.47241 21911 ft 402 kts 57°
2026-05-07 17:02 40.42302 27.50375 21663 ft 400 kts 56°
2026-05-07 17:02 40.43737 27.53491 21417 ft 398 kts 56°
2026-05-07 17:02 40.45173 27.56597 21164 ft 397 kts 56°
2026-05-07 17:02 40.46589 27.59656 20913 ft 395 kts 56°
2026-05-07 17:03 40.48013 27.62729 20668 ft 393 kts 56°
2026-05-07 17:03 40.49434 27.65799 20420 ft 392 kts 56°
2026-05-07 17:03 40.50847 27.68854 20056 ft 390 kts 56°
2026-05-07 17:03 40.52247 27.71883 19610 ft 386 kts 56°
2026-05-07 17:04 40.53634 27.74889 19144 ft 384 kts 56°
2026-05-07 17:04 40.55014 27.77883 18680 ft 381 kts 57°
2026-05-07 17:04 40.56389 27.80867 18147 ft 380 kts 57°
2026-05-07 17:04 40.57756 27.83835 17631 ft 378 kts 57°
2026-05-07 17:05 40.59113 27.86787 17128 ft 375 kts 57°
2026-05-07 17:05 40.60459 27.89718 16646 ft 372 kts 57°
2026-05-07 17:05 40.61776 27.92588 16179 ft 370 kts 57°
2026-05-07 17:05 40.63098 27.95472 15712 ft 367 kts 57°
2026-05-07 17:06 40.64414 27.98344 15248 ft 365 kts 57°
2026-05-07 17:06 40.65718 28.01193 14787 ft 362 kts 57°
2026-05-07 17:06 40.67017 28.04034 14329 ft 360 kts 58°
2026-05-07 17:06 40.68306 28.06855 13871 ft 359 kts 58°
2026-05-07 17:07 40.69590 28.09670 13348 ft 357 kts 58°
2026-05-07 17:07 40.70862 28.12461 12872 ft 354 kts 58°
2026-05-07 17:07 40.72126 28.15236 12404 ft 351 kts 58°
2026-05-07 17:07 40.73377 28.17984 11934 ft 349 kts 58°
2026-05-07 17:08 40.74624 28.20727 11427 ft 348 kts 58°
2026-05-07 17:08 40.75861 28.23451 10978 ft 346 kts 58°
2026-05-07 17:08 40.77092 28.26163 10545 ft 343 kts 58°
2026-05-07 17:08 40.78297 28.28820 10410 ft 331 kts 58°
2026-05-07 17:09 40.79459 28.31387 10245 ft 320 kts 58°
2026-05-07 17:09 40.80584 28.33873 10115 ft 310 kts 58°
2026-05-07 17:09 40.81673 28.36282 9977 ft 301 kts 58°
2026-05-07 17:09 40.82720 28.38599 9948 ft 287 kts 57°
2026-05-07 17:10 40.83401 28.40105 9480 ft 294 kts 57°
2026-05-07 17:10 40.84446 28.42418 9104 ft 294 kts 57°
2026-05-07 17:10 40.85492 28.44736 8730 ft 293 kts 57°
2026-05-07 17:10 40.86535 28.47048 8397 ft 292 kts 57°
2026-05-07 17:11 40.87572 28.49352 8060 ft 291 kts 57°
2026-05-07 17:11 40.88603 28.51643 7727 ft 289 kts 58°
2026-05-07 17:11 40.89630 28.53925 7396 ft 288 kts 58°
2026-05-07 17:11 40.90709 28.56327 7052 ft 287 kts 58°
2026-05-07 17:12 40.91672 28.58471 6737 ft 287 kts 58°
2026-05-07 17:12 40.92690 28.60738 6404 ft 286 kts 58°
2026-05-07 17:12 40.93702 28.62995 6064 ft 285 kts 58°
2026-05-07 17:12 40.94703 28.65230 5888 ft 278 kts 58°
2026-05-07 17:13 40.95676 28.67371 5837 ft 263 kts 53°
2026-05-07 17:13 40.96963 28.68932 5704 ft 243 kts 27°
2026-05-07 17:13 40.98395 28.69978 5604 ft 229 kts 26°
2026-05-07 17:13 40.99758 28.70951 5457 ft 217 kts 20°
2026-05-07 17:14 41.01202 28.71227 5108 ft 206 kts 351°
2026-05-07 17:14 41.02625 28.71146 4838 ft 205 kts 357°
2026-05-07 17:14 41.04031 28.71176 4587 ft 200 kts 356°
2026-05-07 17:14 41.05417 28.71184 4310 ft 198 kts 356°
2026-05-07 17:15 41.06783 28.71174 4068 ft 193 kts 355°
2026-05-07 17:15 41.08101 28.71156 3804 ft 186 kts 354°
2026-05-07 17:15 41.09376 28.71132 3564 ft 181 kts 354°
2026-05-07 17:15 41.10632 28.71105 3343 ft 179 kts 353°
2026-05-07 17:16 41.11853 28.71077 3124 ft 178 kts 353°
2026-05-07 17:16 41.13107 28.71048 2947 ft 184 kts 353°
2026-05-07 17:16 41.14389 28.71019 2710 ft 181 kts 354°
2026-05-07 17:16 41.15626 28.70992 2454 ft 175 kts 354°
2026-05-07 17:17 41.16816 28.70964 2218 ft 168 kts 355°
2026-05-07 17:17 41.17959 28.70937 2005 ft 163 kts 355°
2026-05-07 17:17 41.19085 28.70911 1823 ft 159 kts 355°
2026-05-07 17:17 41.20183 28.70885 1576 ft 158 kts 356°
2026-05-07 17:18 41.21264 28.70864 1378 ft 154 kts 356°
2026-05-07 17:18 41.22337 28.70839 1159 ft 154 kts 356°
2026-05-07 17:18 41.23398 28.70825 979 ft 152 kts 358°
2026-05-07 17:18 41.24447 28.70773 784 ft 150 kts 357°
2026-05-07 17:19 41.25486 28.70749 584 ft 149 kts 359°
2026-05-07 17:19 41.26514 28.70740 384 ft 147 kts 358°
2026-05-07 17:19 41.27481 28.70712 330 ft 124 kts 358°